This is the latest recevied weather packets stored in our database for station/object KF6ILA. If no packets are shown the sender has not sent any weather packets the latest 10 day(s).
| Time | Temp. | Humidity | Pressure | Rain* | Wind** | Luminosity | Snow |
|---|---|---|---|---|---|---|---|
| 1787450339 | 27.78° C | 38% | 1017.2 hPa | 0 mm | - | 28 W/m² | - |
| 1787449745 | 28.33° C | 35% | 1017.2 hPa | 0 mm | - | 54 W/m² | - |
| 1787449151 | 28.89° C | 34% | 1017.3 hPa | 0 mm | - | 86 W/m² | - |
| 1787448854 | 28.89° C | 33% | 1017.3 hPa | 0 mm | - | 104 W/m² | - |
| 1787448557 | 29.44° C | 33% | 1017.4 hPa | 0 mm | - | 127 W/m² | - |
| 1787448260 | 29.44° C | 33% | 1017.5 hPa | 0 mm | - | 149 W/m² | - |
| 1787447963 | 29.44° C | 32% | 1017.6 hPa | 0 mm | - | 171 W/m² | - |
| 1787447666 | 30° C | 32% | 1017.6 hPa | 0 mm | - | 193 W/m² | - |
| 1787447369 | 30° C | 32% | 1017.5 hPa | 0 mm | - | 214 W/m² | - |
| 1787446775 | 30.56° C | 33% | 1017.6 hPa | 0 mm | - | 253 W/m² | - |
| 1787446478 | 30.56° C | 33% | 1017.5 hPa | 0 mm | - | 272 W/m² | - |
| 1787445884 | 30.56° C | 33% | 1017.5 hPa | 0 mm | - | 309 W/m² | - |
| 1787445587 | 30.56° C | 33% | 1017.5 hPa | 0 mm | - | 327 W/m² | - |
| 1787445290 | 30.56° C | 33% | 1017.4 hPa | 0 mm | - | 339 W/m² | - |
| 1787444993 | 31.11° C | 33% | 1017.4 hPa | 0 mm | - | 364 W/m² | - |
| 1787442914 | 31.67° C | 33% | 1017.5 hPa | 0 mm | - | 487 W/m² | - |
| 1787442617 | 31.67° C | 33% | 1017.5 hPa | 0 mm | - | 503 W/m² | - |
| 1787442320 | 31.67° C | 33% | 1017.5 hPa | 0 mm | - | 520 W/m² | - |
| 1787441726 | 31.67° C | 33% | 1017.5 hPa | 0 mm | - | 552 W/m² | - |
| 1787441132 | 31.67° C | 34% | 1017.5 hPa | 0 mm | - | 587 W/m² | - |
| 1787440835 | 32.22° C | 34% | 1017.4 hPa | 0 mm | - | 605 W/m² | - |
| 1787440538 | 32.22° C | 33% | 1017.5 hPa | 0 mm | - | 619 W/m² | - |
| 1787439944 | 32.22° C | 35% | 1017.5 hPa | 0 mm | - | 654 W/m² | - |
| 1787439647 | 31.67° C | 35% | 1018.3 hPa | 0 mm | - | 666 W/m² | - |
| 1787439350 | 32.22° C | 35% | 1018.3 hPa | 0 mm | - | 679 W/m² | - |
* Rain latest hour (hover to see other rain measurements)
** Current wind speed in m/s (hover to see current wind gust speed)